• Em Portugal
  • Lista de países
  • Para 7 dias
  • Temperatura da água
  • Mapas de satélite
  • Mapa do tempo
  • Widgets de tempo
  • user-avatar
    Iniciar Sessão

    Previsão horária em Sarajevo

    Hoje, 21 Setembro, Sexta-feira

    Tempo Temperatura Precipitação Vento Pressão Humidade
    00:00 +16°C° 0.2 mm 1 m/s 690 mmHg 85%
    01:00 +16°C° 0.2 mm 1 m/s 690 mmHg 86%
    02:00 +16°C° 0.1 mm 1 m/s 690 mmHg 86%
    03:00 +16°C° 0.1 mm 1 m/s 690 mmHg 86%
    04:00 +16°C° 0.1 mm 1 m/s 690 mmHg 85%
    05:00 +16°C° 0 mm 1 m/s 690 mmHg 83%
    06:00 +18°C° 0 mm 1 m/s 690 mmHg 81%
    07:00 +19°C° 0 mm 1 m/s 690 mmHg 75%
    08:00 +21°C° 0 mm 1 m/s 691 mmHg 67%
    09:00 +23°C° 0 mm 1 m/s 691 mmHg 59%
    10:00 +25°C° 0 mm 1 m/s 691 mmHg 51%
    11:00 +26°C° 0 mm 1 m/s 691 mmHg 49%
    12:00 +26°C° 0 mm 2 m/s 691 mmHg 46%
    13:00 +26°C° 0 mm 2 m/s 691 mmHg 47%
    14:00 +26°C° 0.1 mm 2 m/s 691 mmHg 49%
    15:00 +25°C° 0.1 mm 1 m/s 691 mmHg 52%
    16:00 +25°C° 0.1 mm 1 m/s 690 mmHg 54%
    17:00 +23°C° 0 mm 1 m/s 690 mmHg 63%
    18:00 +21°C° 0 mm 1 m/s 690 mmHg 71%
    19:00 +18°C° 0 mm 1 m/s 689 mmHg 79%
    20:00 +18°C° 0 mm 1 m/s 689 mmHg 81%
    21:00 +16°C° 0 mm 1 m/s 689 mmHg 83%
    22:00 +16°C° 0 mm 1 m/s 690 mmHg 85%
    23:00 +16°C° 0 mm 1 m/s 690 mmHg 85%

    Amanhã, 22 Setembro, Sábado

    Tempo Temperatura Precipitação Vento Pressão Humidade
    00:00 +15°C° 0 mm 1 m/s 690 mmHg 85%
    01:00 +15°C° 0 mm 1 m/s 690 mmHg 85%
    02:00 +15°C° 0 mm 1 m/s 690 mmHg 85%
    03:00 +14°C° 0 mm 1 m/s 690 mmHg 84%
    04:00 +14°C° 0 mm 1 m/s 690 mmHg 84%
    05:00 +15°C° 0 mm 1 m/s 690 mmHg 80%
    06:00 +16°C° 0 mm 1 m/s 690 mmHg 77%
    07:00 +18°C° 0 mm 1 m/s 691 mmHg 73%
    08:00 +20°C° 0 mm 1 m/s 691 mmHg 65%
    09:00 +23°C° 0 mm 1 m/s 692 mmHg 57%
    10:00 +25°C° 0 mm 1 m/s 693 mmHg 49%
    11:00 +25°C° 0 mm 1 m/s 693 mmHg 48%
    12:00 +26°C° 0 mm 1 m/s 693 mmHg 48%
    13:00 +26°C° 0 mm 2 m/s 693 mmHg 47%
    14:00 +25°C° 0 mm 2 m/s 693 mmHg 52%
    15:00 +24°C° 0 mm 2 m/s 693 mmHg 57%
    16:00 +23°C° 0 mm 2 m/s 693 mmHg 62%
    17:00 +19°C° 0 mm 2 m/s 693 mmHg 68%
    18:00 +17°C° 0 mm 2 m/s 693 mmHg 74%
    19:00 +15°C° 0 mm 2 m/s 693 mmHg 80%
    20:00 +14°C° 0 mm 1 m/s 693 mmHg 81%
    21:00 +13°C° 0 mm 1 m/s 693 mmHg 81%
    22:00 +13°C° 0 mm 1 m/s 693 mmHg 82%
    23:00 +13°C° 0 mm 1 m/s 692 mmHg 82%

    Depois de amanhã, 23 Setembro, Domingo

    Tempo Temperatura Precipitação Vento Pressão Humidade
    00:00 +13°C° 0 mm 1 m/s 692 mmHg 83%
    01:00 +13°C° 0 mm 1 m/s 692 mmHg 83%
    02:00 +13°C° 0 mm 1 m/s 692 mmHg 84%
    03:00 +13°C° 0 mm 1 m/s 692 mmHg 85%
    04:00 +13°C° 0 mm 1 m/s 692 mmHg 86%
    05:00 +14°C° 0 mm 1 m/s 692 mmHg 83%
    06:00 +15°C° 0 mm 1 m/s 693 mmHg 80%
    07:00 +16°C° 0 mm 1 m/s 693 mmHg 77%
    08:00 +20°C° 0 mm 1 m/s 694 mmHg 68%
    09:00 +23°C° 0 mm 1 m/s 694 mmHg 58%
    10:00 +26°C° 0 mm 1 m/s 695 mmHg 49%
    11:00 +26°C° 0 mm 1 m/s 694 mmHg 47%
    12:00 +27°C° 0 mm 1 m/s 694 mmHg 46%
    13:00 +28°C° 0 mm 2 m/s 694 mmHg 44%
    14:00 +27°C° 0 mm 1 m/s 694 mmHg 48%
    15:00 +27°C° 0 mm 1 m/s 693 mmHg 51%
    16:00 +26°C° 0 mm 1 m/s 693 mmHg 55%
    17:00 +24°C° 0 mm 1 m/s 692 mmHg 64%
    18:00 +21°C° 0 mm 1 m/s 692 mmHg 73%
    19:00 +19°C° 0 mm 1 m/s 691 mmHg 82%
    20:00 +19°C° 0 mm 1 m/s 691 mmHg 84%
    21:00 +18°C° 0 mm 1 m/s 691 mmHg 87%
    22:00 +17°C° 0 mm 2 m/s 691 mmHg 89%
    23:00 +16°C° 0 mm 2 m/s 690 mmHg 90%

    24 Setembro, Segunda-feira

    Tempo Temperatura Precipitação Vento Pressão Humidade
    00:00 +16°C° 0 mm 2 m/s 690 mmHg 90%
    01:00 +16°C° 0 mm 2 m/s 689 mmHg 91%
    02:00 +16°C° 0 mm 2 m/s 689 mmHg 91%
    03:00 +16°C° 0 mm 2 m/s 688 mmHg 91%
    04:00 +15°C° 0 mm 2 m/s 688 mmHg 92%
    05:00 +16°C° 0 mm 2 m/s 688 mmHg 88%
    06:00 +17°C° 0 mm 2 m/s 689 mmHg 85%
    07:00 +17°C° 0 mm 2 m/s 689 mmHg 81%
    08:00 +19°C° 0.1 mm 2 m/s 690 mmHg 76%
    09:00 +20°C° 0.1 mm 2 m/s 691 mmHg 71%
    10:00 +23°C° 0.1 mm 2 m/s 693 mmHg 66%
    11:00 +19°C° 0.5 mm 3 m/s 693 mmHg 71%
    12:00 +17°C° 0.5 mm 3 m/s 693 mmHg 76%
    13:00 +13°C° 0.5 mm 3 m/s 693 mmHg 81%
    14:00 +12°C° 0 mm 3 m/s 692 mmHg 78%
    15:00 +12°C° 0 mm 3 m/s 692 mmHg 75%
    16:00 +11°C° 0 mm 4 m/s 692 mmHg 71%
    17:00 +10°C° 0 mm 3 m/s 692 mmHg 72%
    18:00 +10°C° 0 mm 3 m/s 693 mmHg 73%
    19:00 +9°C° 0 mm 3 m/s 693 mmHg 74%
    20:00 +9°C° 0 mm 3 m/s 693 mmHg 74%
    21:00 +8°C° 0 mm 4 m/s 694 mmHg 74%
    22:00 +8°C° 0 mm 4 m/s 694 mmHg 74%
    23:00 +7°C° 0.4 mm 4 m/s 694 mmHg 76%

    25 Setembro, Terça-feira

    Tempo Temperatura Precipitação Vento Pressão Humidade
    00:00 +7°C° 0.4 mm 4 m/s 694 mmHg 78%
    01:00 +7°C° 0.4 mm 4 m/s 695 mmHg 80%
    02:00 +6°C° 0.8 mm 4 m/s 695 mmHg 82%
    03:00 +5°C° 0.8 mm 4 m/s 695 mmHg 84%
    04:00 +5°C° 0.8 mm 3 m/s 695 mmHg 86%
    05:00 +5°C° 0 mm 3 m/s 695 mmHg 84%
    06:00 +5°C° 0 mm 3 m/s 695 mmHg 82%
    07:00 +5°C° 0 mm 3 m/s 696 mmHg 80%
    08:00 +6°C° 0 mm 4 m/s 696 mmHg 69%
    09:00 +8°C° 0 mm 4 m/s 696 mmHg 58%
    10:00 +10°C° 0 mm 5 m/s 697 mmHg 46%
    11:00 +12°C° 0 mm 5 m/s 697 mmHg 44%
    12:00 +12°C° 0 mm 5 m/s 697 mmHg 42%
    13:00 +13°C° 0 mm 5 m/s 697 mmHg 39%
    14:00 +13°C° 0 mm 5 m/s 696 mmHg 40%
    15:00 +12°C° 0 mm 4 m/s 696 mmHg 42%
    16:00 +12°C° 0 mm 4 m/s 696 mmHg 43%
    17:00 +10°C° 0 mm 4 m/s 696 mmHg 49%
    18:00 +8°C° 0 mm 3 m/s 696 mmHg 54%
    19:00 +5°C° 0 mm 3 m/s 696 mmHg 59%
    20:00 +5°C° 0 mm 2 m/s 696 mmHg 61%
    21:00 +4°C° 0 mm 2 m/s 696 mmHg 62%
    22:00 +3°C° 0 mm 2 m/s 696 mmHg 64%
    23:00 +3°C° 0 mm 2 m/s 696 mmHg 64%

    26 Setembro, Quarta-feira

    Tempo Temperatura Precipitação Vento Pressão Humidade
    00:00 +3°C° 0 mm 2 m/s 696 mmHg 65%
    01:00 +2°C° 0 mm 2 m/s 695 mmHg 65%
    02:00 +2°C° 0 mm 2 m/s 695 mmHg 64%
    03:00 +2°C° 0 mm 2 m/s 695 mmHg 63%
    04:00 +2°C° 0 mm 2 m/s 695 mmHg 63%
    05:00 +3°C° 0 mm 2 m/s 695 mmHg 59%
    06:00 +4°C° 0 mm 2 m/s 695 mmHg 54%
    07:00 +5°C° 0 mm 2 m/s 696 mmHg 50%
    08:00 +7°C° 0 mm 2 m/s 696 mmHg 44%
    09:00 +10°C° 0 mm 3 m/s 696 mmHg 37%
    10:00 +13°C° 0 mm 3 m/s 697 mmHg 30%
    11:00 +13°C° 0 mm 4 m/s 697 mmHg 30%
    12:00 +14°C° 0 mm 4 m/s 697 mmHg 29%
    13:00 +15°C° 0 mm 4 m/s 697 mmHg 29%
    14:00 +14°C° 0 mm 4 m/s 696 mmHg 32%
    15:00 +13°C° 0 mm 5 m/s 696 mmHg 36%
    16:00 +13°C° 0 mm 5 m/s 696 mmHg 39%
    17:00 +11°C° 0 mm 4 m/s 696 mmHg 47%
    18:00 +8°C° 0 mm 4 m/s 696 mmHg 55%
    19:00 +7°C° 0 mm 3 m/s 696 mmHg 62%
    20:00 +5°C° 0 mm 3 m/s 696 mmHg 67%
    21:00 +4°C° 0 mm 3 m/s 696 mmHg 71%
    22:00 +4°C° 0 mm 2 m/s 697 mmHg 75%
    23:00 +4°C° 0 mm 2 m/s 697 mmHg 76%
    Mostrar mais